• En España
  • Lista de países
  • Para 7 días
  • Temperatura del agua
  • Mapa Satelital
  • El tiempo en el mapa
  • Informadores
  • user-avatar
    Iniciar sesión

    Tiempo cada hora Igls

    Hoy, 24 Agosto, Jueves

    Tiempo Temperatura Precipitaciones Viento Presión Humedad
    00:00 +15°C° 0 mm 1 mps 687 mmHg 77%
    01:00 +15°C° 0 mm 1 mps 687 mmHg 72%
    02:00 +15°C° 0,1 mm 1 mps 686 mmHg 72%
    03:00 +14°C° 0,1 mm 1 mps 686 mmHg 73%
    04:00 +14°C° 0,1 mm 1 mps 686 mmHg 74%
    05:00 +16°C° 0 mm 1 mps 687 mmHg 72%
    06:00 +18°C° 0 mm 1 mps 687 mmHg 70%
    07:00 +20°C° 0 mm 1 mps 688 mmHg 68%
    08:00 +22°C° 0 mm 1 mps 688 mmHg 59%
    09:00 +25°C° 0 mm 1 mps 688 mmHg 50%
    10:00 +27°C° 0 mm 1 mps 689 mmHg 41%
    11:00 +28°C° 0 mm 1 mps 689 mmHg 39%
    12:00 +29°C° 0 mm 1 mps 689 mmHg 37%
    13:00 +29°C° 0 mm 1 mps 689 mmHg 35%
    14:00 +28°C° 0,3 mm 1 mps 689 mmHg 42%
    15:00 +27°C° 0,3 mm 1 mps 689 mmHg 48%
    16:00 +26°C° 0,3 mm 1 mps 688 mmHg 54%
    17:00 +24°C° 1,2 mm 1 mps 688 mmHg 64%
    18:00 +22°C° 1,2 mm 1 mps 688 mmHg 74%
    19:00 +20°C° 1,2 mm 1 mps 688 mmHg 83%
    20:00 +20°C° 0,2 mm 1 mps 688 mmHg 84%
    21:00 +19°C° 0,2 mm 1 mps 688 mmHg 85%
    22:00 +17°C° 0,2 mm 2 mps 688 mmHg 85%
    23:00 +17°C° 0,1 mm 2 mps 688 mmHg 85%

    Mañana, 25 Agosto, Viernes

    Tiempo Temperatura Precipitaciones Viento Presión Humedad
    00:00 +17°C° 0,1 mm 2 mps 688 mmHg 85%
    01:00 +17°C° 0,1 mm 2 mps 688 mmHg 84%
    02:00 +16°C° 0 mm 2 mps 688 mmHg 84%
    03:00 +16°C° 0 mm 2 mps 688 mmHg 83%
    04:00 +16°C° 0 mm 2 mps 688 mmHg 82%
    05:00 +17°C° 0 mm 2 mps 688 mmHg 80%
    06:00 +19°C° 0 mm 1 mps 688 mmHg 77%
    07:00 +19°C° 0 mm 1 mps 689 mmHg 74%
    08:00 +22°C° 0 mm 1 mps 689 mmHg 64%
    09:00 +25°C° 0 mm 1 mps 689 mmHg 55%
    10:00 +25°C° 0 mm 0 mps 690 mmHg 45%
    11:00 +28°C° 0 mm 1 mps 689 mmHg 43%
    12:00 +29°C° 0 mm 1 mps 689 mmHg 41%
    13:00 +29°C° 0 mm 1 mps 689 mmHg 39%
    14:00 +29°C° 0,1 mm 1 mps 689 mmHg 42%
    15:00 +28°C° 0,1 mm 1 mps 689 mmHg 45%
    16:00 +28°C° 0,1 mm 1 mps 689 mmHg 48%
    17:00 +26°C° 0,6 mm 1 mps 688 mmHg 60%
    18:00 +23°C° 0,6 mm 1 mps 688 mmHg 71%
    19:00 +19°C° 0,6 mm 0 mps 688 mmHg 83%
    20:00 +21°C° 0,4 mm 1 mps 688 mmHg 84%
    21:00 +20°C° 0,4 mm 1 mps 688 mmHg 84%
    22:00 +20°C° 0,4 mm 1 mps 688 mmHg 85%
    23:00 +20°C° 0 mm 1 mps 688 mmHg 84%

    Pasado mañana, 26 Agosto, Sábado

    Tiempo Temperatura Precipitaciones Viento Presión Humedad
    00:00 +19°C° 0 mm 1 mps 688 mmHg 84%
    01:00 +19°C° 0 mm 1 mps 688 mmHg 83%
    02:00 +18°C° 0 mm 1 mps 687 mmHg 81%
    03:00 +18°C° 0 mm 1 mps 687 mmHg 80%
    04:00 +18°C° 0 mm 1 mps 687 mmHg 79%
    05:00 +19°C° 0 mm 1 mps 687 mmHg 76%
    06:00 +20°C° 0 mm 1 mps 688 mmHg 72%
    07:00 +21°C° 0 mm 1 mps 688 mmHg 69%
    08:00 +24°C° 0 mm 1 mps 688 mmHg 60%
    09:00 +26°C° 0 mm 1 mps 689 mmHg 51%
    10:00 +29°C° 0 mm 1 mps 689 mmHg 41%
    11:00 +29°C° 0 mm 1 mps 689 mmHg 40%
    12:00 +30°C° 0 mm 1 mps 689 mmHg 39%
    13:00 +30°C° 0 mm 2 mps 689 mmHg 37%
    14:00 +30°C° 0,2 mm 2 mps 689 mmHg 41%
    15:00 +29°C° 0,2 mm 2 mps 688 mmHg 45%
    16:00 +28°C° 0,2 mm 1 mps 688 mmHg 49%
    17:00 +26°C° 0,7 mm 1 mps 688 mmHg 58%
    18:00 +24°C° 0,7 mm 1 mps 688 mmHg 68%
    19:00 +20°C° 0,7 mm 0 mps 687 mmHg 78%
    20:00 +22°C° 0,3 mm 1 mps 687 mmHg 79%
    21:00 +21°C° 0,3 mm 1 mps 688 mmHg 79%
    22:00 +20°C° 0,3 mm 1 mps 688 mmHg 80%
    23:00 +20°C° 0 mm 1 mps 687 mmHg 79%

    27 Agosto, Domingo

    Tiempo Temperatura Precipitaciones Viento Presión Humedad
    00:00 +19°C° 0 mm 1 mps 687 mmHg 79%
    01:00 +19°C° 0 mm 1 mps 687 mmHg 79%
    02:00 +18°C° 0 mm 1 mps 687 mmHg 78%
    03:00 +18°C° 0 mm 1 mps 687 mmHg 77%
    04:00 +18°C° 0 mm 1 mps 686 mmHg 76%
    05:00 +19°C° 0 mm 1 mps 687 mmHg 74%
    06:00 +20°C° 0 mm 1 mps 687 mmHg 71%
    07:00 +21°C° 0 mm 1 mps 687 mmHg 69%
    08:00 +24°C° 0 mm 1 mps 688 mmHg 60%
    09:00 +26°C° 0 mm 1 mps 688 mmHg 51%
    10:00 +29°C° 0 mm 1 mps 689 mmHg 42%
    11:00 +29°C° 0 mm 1 mps 688 mmHg 40%
    12:00 +30°C° 0 mm 1 mps 688 mmHg 38%
    13:00 +31°C° 0 mm 1 mps 688 mmHg 36%
    14:00 +30°C° 0 mm 1 mps 688 mmHg 39%
    15:00 +30°C° 0 mm 1 mps 687 mmHg 42%
    16:00 +29°C° 0 mm 1 mps 687 mmHg 46%
    17:00 +27°C° 0,8 mm 1 mps 687 mmHg 58%
    18:00 +24°C° 0,8 mm 1 mps 687 mmHg 70%
    19:00 +20°C° 0,8 mm 0 mps 686 mmHg 82%
    20:00 +21°C° 0,9 mm 1 mps 687 mmHg 84%
    21:00 +21°C° 0,9 mm 1 mps 687 mmHg 85%
    22:00 +20°C° 0,9 mm 1 mps 687 mmHg 87%
    23:00 +19°C° 0,2 mm 1 mps 687 mmHg 87%

    28 Agosto, Lunes

    Tiempo Temperatura Precipitaciones Viento Presión Humedad
    00:00 +19°C° 0,2 mm 1 mps 687 mmHg 87%
    01:00 +18°C° 0,2 mm 1 mps 687 mmHg 88%
    02:00 +18°C° 0 mm 1 mps 687 mmHg 87%
    03:00 +18°C° 0 mm 1 mps 687 mmHg 86%
    04:00 +16°C° 0 mm 1 mps 687 mmHg 85%
    05:00 +18°C° 0,1 mm 1 mps 687 mmHg 84%
    06:00 +19°C° 0,1 mm 1 mps 688 mmHg 84%
    07:00 +20°C° 0,1 mm 1 mps 688 mmHg 83%
    08:00 +22°C° 0,1 mm 1 mps 688 mmHg 75%
    09:00 +24°C° 0,1 mm 2 mps 689 mmHg 68%
    10:00 +26°C° 0,1 mm 2 mps 689 mmHg 61%
    11:00 +26°C° 0,2 mm 2 mps 689 mmHg 58%
    12:00 +27°C° 0,2 mm 2 mps 689 mmHg 56%
    13:00 +28°C° 0,2 mm 2 mps 688 mmHg 54%
    14:00 +27°C° 0,5 mm 2 mps 688 mmHg 56%
    15:00 +27°C° 0,5 mm 2 mps 688 mmHg 59%
    16:00 +26°C° 0,5 mm 2 mps 688 mmHg 61%
    17:00 +24°C° 0,3 mm 2 mps 688 mmHg 71%
    18:00 +22°C° 0,3 mm 1 mps 688 mmHg 80%
    19:00 +20°C° 0,3 mm 1 mps 687 mmHg 89%
    20:00 +20°C° 0 mm 1 mps 687 mmHg 91%
    21:00 +19°C° 0 mm 1 mps 688 mmHg 92%
    22:00 +18°C° 0 mm 1 mps 688 mmHg 94%
    23:00 +18°C° 0 mm 1 mps 688 mmHg 94%

    29 Agosto, Martes

    Tiempo Temperatura Precipitaciones Viento Presión Humedad
    00:00 +16°C° 0 mm 1 mps 687 mmHg 94%
    01:00 +16°C° 0 mm 1 mps 687 mmHg 94%
    02:00 +16°C° 0 mm 1 mps 687 mmHg 94%
    03:00 +16°C° 0 mm 1 mps 687 mmHg 93%
    04:00 +15°C° 0 mm 1 mps 687 mmHg 92%
    05:00 +16°C° 0 mm 1 mps 687 mmHg 89%
    06:00 +19°C° 0 mm 1 mps 687 mmHg 85%
    07:00 +20°C° 0 mm 1 mps 687 mmHg 81%
    08:00 +22°C° 0 mm 1 mps 688 mmHg 70%
    09:00 +25°C° 0 mm 1 mps 688 mmHg 58%
    10:00 +25°C° 0 mm 0 mps 688 mmHg 47%
    11:00 +28°C° 0 mm 1 mps 688 mmHg 43%
    12:00 +29°C° 0 mm 1 mps 688 mmHg 39%
    13:00 +30°C° 0 mm 1 mps 688 mmHg 36%
    14:00 +29°C° 0 mm 1 mps 688 mmHg 38%
    15:00 +29°C° 0 mm 1 mps 687 mmHg 40%
    16:00 +29°C° 0 mm 2 mps 687 mmHg 42%
    17:00 +26°C° 0 mm 1 mps 687 mmHg 56%
    18:00 +23°C° 0 mm 1 mps 686 mmHg 69%
    19:00 +18°C° 0 mm 0 mps 686 mmHg 83%
    20:00 +20°C° 0 mm 1 mps 686 mmHg 83%
    21:00 +19°C° 0 mm 1 mps 686 mmHg 84%
    22:00 +19°C° 0 mm 1 mps 687 mmHg 84%
    23:00 +18°C° 0 mm 2 mps 686 mmHg 83%
    Mostrar más